Lexington Weather

Lexington, Massachusetts, USA

48°F
12/8/2022 3:04pm 
  • Lexington Conditions: Clear
  • Temperature: 48.4°F / 9.1°CColder 1.4°F than last hour.
  • Dew Point: 35.1°FDecreased 0.5°Fsince last hour.
  • Relative Humidity: 60%Increased 2.0% since last hour.
  • Wind: Wind from NNE NNE Calm, 10-min avg: 2 mph, gust: 8 mph
  • Barometer: 30.08 inRising 0.02  inHg/hr Rising Slowly
  • Visibility: 10 miles
  • Rain Today: 0.00 in
  •   

Regional Weather Roundup
for Boston, MA

        
000
ASUS41 KBOX 032110
RWRBOX

REGIONAL WEATHER ROUNDUP
NATIONAL WEATHER SERVICE BOSTON/NORTON MA
400 PM EST SAT DEC 03 2022

NOTE:  "FAIR" INDICATES FEW OR NO CLOUDS BELOW 12,000 FEET WITH NO 
SIGNIFICANT WEATHER AND/OR OBSTRUCTIONS TO VISIBILITY.

MAZALL-032200-
EASTERN MASSACHUSETTS
  
CITY           SKY/WX    TMP DP  RH WIND       PRES   REMARKS
BOSTON         LGT RAIN  56  54  93 S22       29.87F                  
BEVERLY        LGT RAIN  56  53  90 S16G23    29.85F                  
LAWRENCE       CLOUDY    57  53  86 S12G22    29.85F                  
BEDFORD        CLOUDY    57  54  89 S15G22    29.85F                  
NORWOOD        LGT RAIN  59  55  87 S15G25    29.88F                  
MARSHFIELD       N/A     57  54  88 SW21G40   29.89F FOG              
PLYMOUTH       RAIN      57  54  89 SW20G32   29.92F FOG              
TAUNTON          N/A    N/A N/A N/A MISG      29.91F                  
NEW BEDFORD    RAIN      57  56  96 S28G44    29.92F FOG              
$$

MAZALL-032200-
CAPE COD AND THE ISLANDS
  
CITY           SKY/WX    TMP DP  RH WIND       PRES   REMARKS
FALMOUTH       LGT RAIN  55  55 100 S23G46    29.95F                  
HYANNIS        LGT RAIN  54  53  97 S22G32    29.95F FOG              
CHATHAM        LGT RAIN  55  52  89 S13G26    30.00F FOG              
PROVINCETOWN   RAIN      55  54  96 S22G33    29.94F FOG              
NANTUCKET      LGT RAIN  58  55  90 S25G35    30.02F                  
MARTHAS VNYRD  CLOUDY    57  55  93 S28G38    29.98F FOG              
$$
 
MAZALL-032200-
CENTRAL AND WESTERN MASSACHUSETTS
  
CITY           SKY/WX    TMP DP  RH WIND       PRES   REMARKS
WORCESTER      LGT RAIN  55  51  86 SW24G32   29.85F FOG              
FITCHBURG      CLOUDY    56  50  80 VRB6G18   29.84F                  
ORANGE         CLOUDY    55  50  83 SW17G29   29.83F                  
SPRINGFIELD    MOCLDY    54  54  99 SW16      29.83F                  
WESTFIELD      CLOUDY    54  52  93 S10       29.85F                  
NORTH ADAMS    MOCLDY    55  48  77 W16G22    29.81F                  
PITTSFIELD     CLOUDY    52  48  86 S12G25    29.82F                  
$$
 
RIZALL-032200-
RHODE ISLAND
  
CITY           SKY/WX    TMP DP  RH WIND       PRES   REMARKS
PROVIDENCE     LGT RAIN  56  56 100 SW18G25   29.91F FOG              
NEWPORT        LGT RAIN  55  54  96 S18G37    29.92F FOG              
BLOCK ISLAND   LGT RAIN  55  54  96 SW29G38   29.95F FOG              
SMITHFIELD     LGT RAIN  55  54  96 SW12G21   29.89F FOG              
WESTERLY       LGT RAIN  56  55  97 SW20G31   29.93F FOG              
$$
 
CTZALL-032200-
CONNECTICUT
  
CITY           SKY/WX    TMP DP  RH WIND       PRES   REMARKS
BRADLEY INTL   MOCLDY    56  52  86 SW13      29.87F                  
HARTFORD       CLOUDY    58  53  84 SW12G25   29.89S                  
BRIDGEPORT     CLOUDY    55  53  93 SW15      29.93S                  
DANBURY        CLOUDY    58  51  78 SW15G22   29.92F                  
GROTON         LGT RAIN  57  54  89 SW23G33   29.93S FOG              
NEW HAVEN      CLOUDY    57  54  89 SW12G18   29.93R                  
CHESTER        DRIZZLE   55  55 100 SW15G22   29.93R                  
MERIDEN        CLOUDY    57  52  83 S9        29.91S                  
WILLIMANTIC    LGT RAIN  55  54  96 SW9G22    29.90S FOG              
OXFORD         CLOUDY    54  52  93 SW9G20    29.92R                  
$$

MEZ002-015-021-024-NHZ003-005-008-011-012-014-VTZ005-008-032200-
NORTHERN NEW ENGLAND
  
CITY           SKY/WX    TMP DP  RH WIND       PRES   REMARKS
PORTLAND ME    CLOUDY    53  52  96 S17G26    29.81F FOG              
BANGOR ME      LGT RAIN  53  51  93 S24G38    29.80F FOG              
CONCORD NH     CLOUDY    53  52  96 SE9       29.81S                  
MANCHESTER NH  LGT RAIN  56  53  90 S13       29.81F FOG              
NASHUA NH      LGT RAIN  55 N/A N/A S7G14     29.84F                  
PORTSMOUTH NH  DRIZZLE   55  54  94 S14G20    29.82F FOG              
JAFFREY NH     CLOUDY    54  50  86 SW13G18   29.82S                  
KEENE NH       CLOUDY    54  51  90 S14G20      N/A                   
BURLINGTON VT  CLOUDY    50  46  86 S18G26    29.70R                  
MT. WASHINGTON FOG       32  32 100 W51G66      N/A  VSB 0   WCI  14  
$$

NYZ052-076-032200-
EASTERN NEW YORK
  
CITY           SKY/WX    TMP DP  RH WIND       PRES   REMARKS
ALBANY         DRIZZLE   52  49  89 S12       29.83R                  
NEW YORK CITY  MOCLDY    58  51  78 SW15G26   29.94F                  
$$
 
ANZALL-032200-
MARINE OBSERVATIONS
  
STATION/POSITION TIME  TEMP    WIND        PRES    VSBY  WAVE
                       AIR SEA DIR/SP/G                  HT/PER
                 (UTC) (F)     (DEG/KT/KT) (MB)    (MI)  (FT/S)
BOSTON BUOY      2050      51  200/ 21/ 29 1012.7F         5/ 5
BUZZARDS BAY     2000   56     200/ 36/ 40 1015.5F
NANTUCKET SOUND  2050   56     190/ 25/ 31 1015.4F         3/ 4
MASS BAY-STELLWA 1904   55 50  190/ 25/ 31 1012.0F  1 7/8  7/ 6
ISLE OF SHOALS   2000   54     190/ 35/ 38 1010.1F
S OF BLOCK IS    2056      56                N/A          11/ 8
$$

......................KEY.........................
  SKY/WX - SKY CONDITION/PRESENT WEATHER
  TMP    - TEMPERATURE IN FAHRENHEIT
  DWPT   - DEWPOINT IN FAHRENHEIT
  RH     - RELATIVE HUMIDITY IN PERCENT
  WIND   - DIRECTION AND SPEED IN MPH
  PRES   - MEAN SEA LEVEL PRESSURE IN INCHES OF HG
  WCI    - WIND CHILL INDEX
  VSB    - VISIBILITY IN MILES
  HX     - HEAT INDEX
  TC     - TEMPERATURE IN CELSIUS
  VRB    - VARIABLE WIND DIRECTION
  N/A    - NOT AVAILABLE
  
      

Other recent Regional Weather Roundups

Thu Dec 8, 2:10pm

Thu Dec 8, 1:10pm

Thu Dec 8, 12:10pm

Thu Dec 8, 11:10am

Thu Dec 8, 10:10am

Thu Dec 8, 9:10am

Thu Dec 8, 8:10am

Thu Dec 8, 7:10am

Thu Dec 8, 6:10am

Thu Dec 8, 5:10am

Thu Dec 8, 4:10am

Thu Dec 8, 3:10am

Thu Dec 8, 2:10am

Thu Dec 8, 1:10am

Thu Dec 8, 12:10am

Wed Dec 7, 11:10pm

Wed Dec 7, 10:10pm

Wed Dec 7, 9:10pm

Wed Dec 7, 8:10pm

Wed Dec 7, 7:10pm

Wed Dec 7, 6:10pm

Wed Dec 7, 5:10pm

Wed Dec 7, 4:10pm

Wed Dec 7, 3:10pm

Wed Dec 7, 2:10pm

Wed Dec 7, 1:10pm

Wed Dec 7, 12:10pm

Wed Dec 7, 11:10am

Wed Dec 7, 10:10am

Wed Dec 7, 9:10am

Wed Dec 7, 8:10am

Wed Dec 7, 7:10am

Wed Dec 7, 6:10am

Wed Dec 7, 5:10am

Wed Dec 7, 4:10am

Wed Dec 7, 3:10am

Wed Dec 7, 2:10am

Wed Dec 7, 1:10am

Wed Dec 7, 12:10am

Tue Dec 6, 11:10pm

Tue Dec 6, 10:10pm

Tue Dec 6, 9:10pm

Tue Dec 6, 8:10pm

Tue Dec 6, 7:10pm

Tue Dec 6, 6:10pm

Tue Dec 6, 5:10pm

Tue Dec 6, 4:10pm

Tue Dec 6, 3:10pm

Tue Dec 6, 2:10pm

Tue Dec 6, 1:10pm

Tue Dec 6, 12:10pm

Tue Dec 6, 11:10am

Tue Dec 6, 10:10am

Tue Dec 6, 9:10am

Tue Dec 6, 8:10am

Tue Dec 6, 7:10am

Tue Dec 6, 6:10am

Tue Dec 6, 5:10am

Tue Dec 6, 4:10am

Tue Dec 6, 3:10am

Tue Dec 6, 2:10am

Tue Dec 6, 1:10am

Tue Dec 6, 12:10am

Mon Dec 5, 11:10pm

Mon Dec 5, 10:10pm

Mon Dec 5, 9:10pm

Mon Dec 5, 8:10pm

Mon Dec 5, 7:10pm

Mon Dec 5, 6:10pm

Mon Dec 5, 5:10pm

Mon Dec 5, 4:10pm

Mon Dec 5, 3:10pm

Mon Dec 5, 2:10pm

Mon Dec 5, 1:10pm

Mon Dec 5, 12:10pm

Mon Dec 5, 11:10am

Mon Dec 5, 10:10am

Mon Dec 5, 9:10am

Mon Dec 5, 8:10am

Mon Dec 5, 7:10am

Mon Dec 5, 6:10am

Mon Dec 5, 5:10am

Mon Dec 5, 4:10am

Mon Dec 5, 3:10am

Mon Dec 5, 2:10am

Mon Dec 5, 1:10am

Mon Dec 5, 12:10am

Sun Dec 4, 11:10pm

Sun Dec 4, 10:10pm

Sun Dec 4, 9:10pm

Sun Dec 4, 8:10pm

Sun Dec 4, 7:10pm

Sun Dec 4, 6:10pm

Sun Dec 4, 5:10pm

Sun Dec 4, 4:10pm

Sun Dec 4, 3:10pm

Sun Dec 4, 2:10pm

Sun Dec 4, 1:10pm

Sun Dec 4, 12:10pm

Sun Dec 4, 11:10am

Sun Dec 4, 10:10am

Sun Dec 4, 9:10am

Sun Dec 4, 8:10am

Sun Dec 4, 7:10am

Sun Dec 4, 6:10am

Sun Dec 4, 5:10am

Sun Dec 4, 4:10am

Sun Dec 4, 3:10am

Sun Dec 4, 2:10am

Sun Dec 4, 1:10am

Sun Dec 4, 12:10am

Sat Dec 3, 11:10pm

Sat Dec 3, 10:10pm

Sat Dec 3, 9:10pm

Sat Dec 3, 8:10pm

Sat Dec 3, 7:10pm

Sat Dec 3, 6:10pm

Sat Dec 3, 5:10pm

Sat Dec 3, 3:10pm

Sat Dec 3, 2:10pm

Sat Dec 3, 1:10pm

Sat Dec 3, 12:10pm

Sat Dec 3, 11:10am

Sat Dec 3, 10:10am

Sat Dec 3, 9:10am

Sat Dec 3, 8:10am

Sat Dec 3, 7:10am

Sat Dec 3, 6:10am

Sat Dec 3, 5:10am

Sat Dec 3, 4:10am

Sat Dec 3, 3:10am

Sat Dec 3, 2:10am

Sat Dec 3, 1:10am

Sat Dec 3, 12:10am

Fri Dec 2, 11:10pm

Fri Dec 2, 10:10pm

Fri Dec 2, 9:10pm

Fri Dec 2, 8:10pm

Fri Dec 2, 7:10pm

Fri Dec 2, 6:10pm

Fri Dec 2, 5:10pm

Fri Dec 2, 4:10pm

Fri Dec 2, 3:10pm

Fri Dec 2, 2:10pm

Fri Dec 2, 1:10pm

Fri Dec 2, 12:10pm

Fri Dec 2, 11:10am

Fri Dec 2, 10:10am

Fri Dec 2, 9:10am

Fri Dec 2, 8:10am

Fri Dec 2, 7:10am

Fri Dec 2, 6:10am

Fri Dec 2, 5:10am

Fri Dec 2, 4:10am

Fri Dec 2, 3:10am

Fri Dec 2, 2:10am

Fri Dec 2, 1:10am

Fri Dec 2, 12:10am

Thu Dec 1, 11:10pm

Thu Dec 1, 10:10pm

Thu Dec 1, 9:10pm

Thu Dec 1, 8:10pm

Thu Dec 1, 7:10pm

Thu Dec 1, 6:10pm

Thu Dec 1, 5:10pm

Thu Dec 1, 4:10pm

Thu Dec 1, 3:10pm

Meta data:

ID: 8a038307-ba32-4a95-a45e-dd265791a6c6
Link: https://api.weather.gov/products/8a038307-ba32-4a95-a45e-dd265791a6c6